| time (UTC) | temp F | wind direction | speed MPH | gust MPH | rain 1hr in | rain 24hr in | rain mn in | humidity % | barometer mb |
| 20260504012018 | 54 | 243 | 0.0 | 0.0 | 0.00 | 0.00 | 0.00 | 67 | 1017.0 |
| 20260504011512 | 54 | 243 | 0.0 | 0.0 | 0.00 | 0.00 | 0.00 | 67 | 1017.0 |
| 20260504011013 | 55 | 243 | 0.0 | 0.0 | 0.00 | 0.00 | 0.00 | 66 | 1017.0 |
| 20260504010511 | 55 | 243 | 0.0 | 0.0 | 0.00 | 0.00 | 0.00 | 65 | 1016.9 |
| 20260504010011 | 55 | 243 | 0.0 | 0.0 | 0.00 | 0.00 | 0.00 | 64 | 1016.8 |
| 20260504005511 | 56 | 243 | 0.0 | 0.0 | 0.00 | 0.00 | 0.00 | 64 | 1016.8 |
| 20260504005011 | 56 | 243 | 0.0 | 0.0 | 0.00 | 0.00 | 0.00 | 64 | 1016.7 |
| 20260504004511 | 56 | 243 | 0.0 | 0.0 | 0.00 | 0.00 | 0.00 | 63 | 1016.6 |
| 20260504004011 | 57 | 243 | 0.0 | 0.0 | 0.00 | 0.00 | 0.00 | 60 | 1016.6 |
| 20260504003511 | 57 | 243 | 0.0 | 0.0 | 0.00 | 0.00 | 0.00 | 59 | 1016.6 |
| 20260504003015 | 58 | 243 | 0.0 | 0.0 | 0.00 | 0.00 | 0.00 | 59 | 1016.6 |
| 20260504002510 | 58 | 243 | 0.0 | 0.0 | 0.00 | 0.00 | 0.00 | 59 | 1016.5 |
| 20260504002009 | 58 | 243 | 0.0 | 0.0 | 0.00 | 0.00 | 0.00 | 57 | 1016.5 |
| 20260504001511 | 59 | 243 | 0.0 | 0.0 | 0.00 | 0.00 | 0.00 | 55 | 1016.6 |
| 20260504001009 | 59 | 243 | 0.0 | 0.0 | 0.00 | 0.00 | 0.00 | 57 | 1016.7 |
| 20260504000508 | 60 | 243 | 0.0 | 0.0 | 0.00 | 0.00 | 0.00 | 53 | 1016.7 |
| 20260504000009 | 60 | 243 | 0.0 | 0.0 | 0.00 | 0.00 | 0.00 | 53 | 1016.8 |
| 20260503235507 | 61 | 228 | 0.0 | 0.0 | 0.00 | 0.00 | 0.00 | 52 | 1016.7 |
| 20260503235007 | 61 | 228 | 0.0 | 2.0 | 0.00 | 0.00 | 0.00 | 51 | 1016.8 |
| 20260503234506 | 61 | 228 | 0.0 | 4.0 | 0.00 | 0.00 | 0.00 | 50 | 1017.0 |
| 20260503234007 | 61 | 227 | 0.0 | 4.0 | 0.00 | 0.00 | 0.00 | 49 | 1017.0 |
| 20260503233505 | 62 | 252 | 0.0 | 4.0 | 0.00 | 0.00 | 0.00 | 48 | 1017.0 |
| 20260503233006 | 62 | 269 | 0.0 | 4.0 | 0.00 | 0.00 | 0.00 | 49 | 1017.0 |
| 20260503232505 | 62 | 213 | 0.0 | 4.0 | 0.00 | 0.00 | 0.00 | 48 | 1017.1 |
| 20260503232005 | 62 | 186 | 0.0 | 4.0 | 0.00 | 0.00 | 0.00 | 48 | 1017.2 |
| 20260503231504 | 62 | 230 | 1.0 | 7.0 | 0.00 | 0.00 | 0.00 | 47 | 1017.1 |
| 20260503231004 | 62 | 192 | 0.0 | 7.0 | 0.00 | 0.00 | 0.00 | 48 | 1017.2 |
| 20260503230508 | 62 | 184 | 0.0 | 3.0 | 0.00 | 0.00 | 0.00 | 45 | 1017.3 |
| 20260503230003 | 63 | 223 | 0.0 | 4.0 | 0.00 | 0.00 | 0.00 | 46 | 1017.3 |
| 20260503225503 | 63 | 259 | 1.0 | 7.0 | 0.00 | 0.00 | 0.00 | 46 | 1017.4 |
| 20260503225002 | 63 | 132 | 0.0 | 8.0 | 0.00 | 0.00 | 0.00 | 44 | 1017.4 |
| 20260503224502 | 63 | 267 | 1.0 | 8.0 | 0.00 | 0.00 | 0.00 | 45 | 1017.4 |
| 20260503224008 | 63 | 276 | 1.0 | 4.0 | 0.00 | 0.00 | 0.00 | 46 | 1017.4 |
| 20260503223503 | 63 | 263 | 1.0 | 4.0 | 0.00 | 0.00 | 0.00 | 43 | 1017.3 |
| 20260503223001 | 63 | 267 | 1.0 | 4.0 | 0.00 | 0.00 | 0.00 | 43 | 1017.4 |
| 20260503222600 | 63 | 225 | 1.0 | 3.0 | 0.00 | 0.00 | 0.00 | 47 | 1017.4 |
| 20260503222100 | 64 | 246 | 0.0 | 5.0 | 0.00 | 0.00 | 0.00 | 45 | 1017.5 |
| 20260503221603 | 64 | 251 | 1.0 | 5.0 | 0.00 | 0.00 | 0.00 | 43 | 1017.4 |
| 20260503221103 | 64 | 275 | 1.0 | 4.0 | 0.00 | 0.00 | 0.00 | 44 | 1017.6 |
| 20260503220558 | 64 | 194 | 1.0 | 4.0 | 0.00 | 0.00 | 0.00 | 39 | 1017.6 |
| 20260503220058 | 64 | 173 | 0.0 | 7.0 | 0.00 | 0.00 | 0.00 | 41 | 1017.7 |
| 20260503215557 | 65 | 207 | 0.0 | 5.0 | 0.00 | 0.00 | 0.00 | 42 | 1017.8 |
| 20260503215056 | 65 | 275 | 1.0 | 5.0 | 0.00 | 0.00 | 0.00 | 41 | 1017.7 |
| 20260503214557 | 65 | 257 | 1.0 | 7.0 | 0.00 | 0.00 | 0.00 | 40 | 1017.8 |
| 20260503214056 | 66 | 275 | 0.0 | 7.0 | 0.00 | 0.00 | 0.00 | 39 | 1017.7 |
| 20260503213559 | 66 | 260 | 1.0 | 4.0 | 0.00 | 0.00 | 0.00 | 39 | 1017.8 |
| 20260503213055 | 67 | 130 | 0.0 | 8.0 | 0.00 | 0.00 | 0.00 | 38 | 1017.8 |
| 20260503212555 | 68 | 224 | 2.0 | 9.0 | 0.00 | 0.00 | 0.00 | 40 | 1017.9 |
| 20260503212054 | 69 | 156 | 0.0 | 9.0 | 0.00 | 0.00 | 0.00 | 39 | 1017.9 |
| 20260503211555 | 70 | 219 | 1.0 | 4.0 | 0.00 | 0.00 | 0.00 | 38 | 1018.1 |
| 20260503211056 | 70 | 223 | 1.0 | 4.0 | 0.00 | 0.00 | 0.00 | 36 | 1018.1 |
| 20260503210554 | 70 | 194 | 1.0 | 5.0 | 0.00 | 0.00 | 0.00 | 36 | 1018.1 |
| 20260503210054 | 70 | 200 | 1.0 | 8.0 | 0.00 | 0.00 | 0.00 | 39 | 1018.1 |
| 20260503205552 | 70 | 184 | 2.0 | 8.0 | 0.00 | 0.00 | 0.00 | 40 | 1018.2 |
| 20260503205053 | 70 | 240 | 3.0 | 7.0 | 0.00 | 0.00 | 0.00 | 38 | 1018.2 |
| 20260503204554 | 70 | 269 | 1.0 | 7.0 | 0.00 | 0.00 | 0.00 | 39 | 1018.2 |
| 20260503204050 | 69 | 281 | 1.0 | 4.0 | 0.00 | 0.00 | 0.00 | 37 | 1018.3 |
| 20260503203554 | 69 | 203 | 1.0 | 3.0 | 0.00 | 0.00 | 0.00 | 41 | 1018.5 |
| 20260503203050 | 69 | 154 | 0.0 | 4.0 | 0.00 | 0.00 | 0.00 | 40 | 1018.4 |
| 20260503202550 | 69 | 203 | 2.0 | 5.0 | 0.00 | 0.00 | 0.00 | 41 | 1018.6 |
| 20260503202051 | 69 | 345 | 0.0 | 6.0 | 0.00 | 0.00 | 0.00 | 42 | 1018.7 |
| 20260503201549 | 69 | 249 | 2.0 | 6.0 | 0.00 | 0.00 | 0.00 | 38 | 1018.8 |
| 20260503201051 | 69 | 302 | 0.0 | 5.0 | 0.00 | 0.00 | 0.00 | 40 | 1018.8 |
| 20260503200547 | 68 | 159 | 2.0 | 5.0 | 0.00 | 0.00 | 0.00 | 38 | 1019.0 |
| 20260503200047 | 68 | 235 | 1.0 | 4.0 | 0.00 | 0.00 | 0.00 | 38 | 1019.0 |
| 20260503195545 | 68 | 248 | 1.0 | 4.0 | 0.00 | 0.00 | 0.00 | 36 | 1019.2 |
| 20260503195045 | 68 | 313 | 1.0 | 3.0 | 0.00 | 0.00 | 0.00 | 40 | 1019.2 |
| 20260503194547 | 68 | 284 | 1.0 | 3.0 | 0.00 | 0.00 | 0.00 | 46 | 1019.3 |
| 20260503194045 | 68 | 338 | 1.0 | 4.0 | 0.00 | 0.00 | 0.00 | 42 | 1019.2 |
| 20260503193545 | 68 | 351 | 1.0 | 4.0 | 0.00 | 0.00 | 0.00 | 43 | 1019.3 |
| 20260503193046 | 68 | 348 | 0.0 | 4.0 | 0.00 | 0.00 | 0.00 | 42 | 1019.5 |
| 20260503192544 | 68 | 280 | 1.0 | 4.0 | 0.00 | 0.00 | 0.00 | 41 | 1019.5 |
| 20260503192044 | 68 | 86 | 1.0 | 3.0 | 0.00 | 0.00 | 0.00 | 46 | 1019.5 |
| 20260503191543 | 68 | 218 | 1.0 | 3.0 | 0.00 | 0.00 | 0.00 | 42 | 1019.5 |
| 20260503191044 | 67 | 245 | 1.0 | 3.0 | 0.00 | 0.00 | 0.00 | 45 | 1019.4 |
| 20260503190544 | 67 | 342 | 1.0 | 8.0 | 0.00 | 0.00 | 0.00 | 47 | 1019.5 |
| 20260503190041 | 67 | 225 | 1.0 | 8.0 | 0.00 | 0.00 | 0.00 | 42 | 1019.6 |
| 20260503185540 | 67 | 227 | 1.0 | 7.0 | 0.00 | 0.00 | 0.00 | 46 | 1019.5 |
| 20260503185040 | 67 | 210 | 2.0 | 7.0 | 0.00 | 0.00 | 0.00 | 40 | 1019.6 |
| 20260503184557 | 67 | 291 | 1.0 | 4.0 | 0.00 | 0.00 | 0.00 | 43 | 1019.7 |
| 20260503184039 | 67 | 267 | 1.0 | 4.0 | 0.00 | 0.00 | 0.00 | 46 | 1019.7 |
| 20260503183538 | 66 | 227 | 1.0 | 4.0 | 0.00 | 0.00 | 0.00 | 41 | 1019.8 |
| 20260503183037 | 66 | 213 | 1.0 | 4.0 | 0.00 | 0.00 | 0.00 | 47 | 1019.8 |
| 20260503182536 | 66 | 265 | 1.0 | 4.0 | 0.00 | 0.00 | 0.00 | 47 | 1019.9 |
| 20260503182035 | 66 | 327 | 1.0 | 4.0 | 0.00 | 0.00 | 0.00 | 44 | 1020.2 |
| 20260503181535 | 65 | 30 | 1.0 | 4.0 | 0.00 | 0.00 | 0.00 | 48 | 1020.2 |
| 20260503181034 | 65 | 227 | 1.0 | 2.0 | 0.00 | 0.00 | 0.00 | 42 | 1020.1 |
| 20260503180535 | 65 | 338 | 0.0 | 4.0 | 0.00 | 0.00 | 0.00 | 44 | 1020.2 |
| 20260503180037 | 65 | 175 | 1.0 | 4.0 | 0.00 | 0.00 | 0.00 | 43 | 1020.3 |
| 20260503175532 | 65 | 286 | 0.0 | 3.0 | 0.00 | 0.00 | 0.00 | 47 | 1020.3 |
| 20260503175035 | 64 | 142 | 1.0 | 3.0 | 0.00 | 0.00 | 0.00 | 47 | 1020.3 |
| 20260503174533 | 64 | 16 | 0.0 | 5.0 | 0.00 | 0.00 | 0.00 | 42 | 1020.4 |
| 20260503174032 | 64 | 228 | 3.0 | 5.0 | 0.00 | 0.00 | 0.00 | 43 | 1020.5 |
| 20260503173529 | 63 | 232 | 1.0 | 5.0 | 0.00 | 0.00 | 0.00 | 47 | 1020.5 |
| 20260503173034 | 63 | 191 | 1.0 | 5.0 | 0.00 | 0.00 | 0.00 | 45 | 1020.7 |
| 20260503172528 | 63 | 203 | 2.0 | 5.0 | 0.00 | 0.00 | 0.00 | 42 | 1020.8 |
| 20260503172027 | 63 | 241 | 1.0 | 4.0 | 0.00 | 0.00 | 0.00 | 50 | 1020.8 |
| 20260503171529 | 62 | 163 | 1.0 | 5.0 | 0.00 | 0.00 | 0.00 | 47 | 1020.8 |
| 20260503171027 | 63 | 173 | 1.0 | 5.0 | 0.00 | 0.00 | 0.00 | 42 | 1020.8 |
| 20260503170526 | 63 | 16 | 0.0 | 4.0 | 0.00 | 0.00 | 0.00 | 46 | 1020.9 |
| 20260503151003 | 58 | 321 | 0.0 | 3.0 | 0.00 | 0.00 | 0.00 | 49 | 1021.9 |
| 20260503150501 | 57 | 102 | 0.0 | 3.0 | 0.00 | 0.00 | 0.00 | 50 | 1022.1 |
| 20260503131039 | 48 | 86 | 0.0 | 3.0 | 0.00 | 0.00 | 0.00 | 77 | 1021.9 |
| 20260503130539 | 48 | 89 | 0.0 | 3.0 | 0.00 | 0.00 | 0.00 | 76 | 1022.0 |
| 20260503110523 | 41 | 11 | 0.0 | 0.0 | 0.00 | 0.00 | 0.00 | 90 | 1020.7 |
| 20260503090504 | 44 | 11 | 0.0 | 0.0 | 0.00 | 0.00 | 0.00 | 82 | 1019.7 |
| 20260503081600 | 46 | 11 | 0.0 | 0.0 | 0.00 | 0.00 | 0.00 | 78 | 1019.3 |
| 20260503081054 | 46 | 11 | 0.0 | 0.0 | 0.00 | 0.00 | 0.00 | 78 | 1019.2 |
| 20260503080553 | 47 | 11 | 0.0 | 0.0 | 0.00 | 0.00 | 0.00 | 76 | 1019.1 |
| 20260503072544 | 49 | 11 | 0.0 | 0.0 | 0.00 | 0.00 | 0.00 | 72 | 1018.7 |
| 20260503072046 | 49 | 11 | 0.0 | 0.0 | 0.00 | 0.00 | 0.00 | 72 | 1018.7 |
| 20260503071603 | 49 | 11 | 0.0 | 0.0 | 0.00 | 0.00 | 0.00 | 72 | 1018.6 |
| 20260503071042 | 49 | 11 | 0.0 | 0.0 | 0.00 | 0.00 | 0.00 | 72 | 1018.6 |
| 20260503070542 | 49 | 11 | 0.0 | 0.0 | 0.00 | 0.00 | 0.00 | 73 | 1018.6 |
| 20260503055036 | 50 | 325 | 0.0 | 0.0 | 0.00 | 0.00 | 0.00 | 72 | 1018.6 |
| 20260503054544 | 50 | 325 | 0.0 | 0.0 | 0.00 | 0.00 | 0.00 | 72 | 1018.6 |
| 20260503054036 | 50 | 325 | 0.0 | 0.0 | 0.00 | 0.00 | 0.00 | 72 | 1018.5 |
| 20260503053536 | 50 | 325 | 0.0 | 0.0 | 0.00 | 0.00 | 0.00 | 71 | 1018.5 |
| 20260503053039 | 50 | 325 | 0.0 | 0.0 | 0.00 | 0.00 | 0.00 | 72 | 1018.5 |
| 20260503052535 | 50 | 326 | 0.0 | 0.0 | 0.00 | 0.00 | 0.00 | 72 | 1018.5 |
| 20260503052037 | 50 | 325 | 0.0 | 0.0 | 0.00 | 0.00 | 0.00 | 72 | 1018.5 |
| 20260503051534 | 50 | 326 | 0.0 | 0.0 | 0.00 | 0.00 | 0.00 | 72 | 1018.5 |
| 20260503051036 | 50 | 325 | 0.0 | 0.0 | 0.00 | 0.00 | 0.00 | 71 | 1018.5 |
| 20260503050533 | 50 | 325 | 0.0 | 0.0 | 0.00 | 0.00 | 0.00 | 71 | 1018.4 |
| 20260503050032 | 51 | 326 | 0.0 | 0.0 | 0.00 | 0.00 | 0.00 | 70 | 1018.4 |
| 20260503045532 | 51 | 326 | 0.0 | 0.0 | 0.00 | 0.00 | 0.00 | 69 | 1018.4 |
| 20260503045029 | 51 | 325 | 0.0 | 0.0 | 0.00 | 0.00 | 0.00 | 68 | 1018.3 |
| 20260503044543 | 51 | 325 | 0.0 | 0.0 | 0.00 | 0.00 | 0.00 | 67 | 1018.2 |
| 20260503044031 | 52 | 325 | 0.0 | 0.0 | 0.00 | 0.00 | 0.00 | 67 | 1018.2 |
| 20260503043527 | 52 | 326 | 0.0 | 0.0 | 0.00 | 0.00 | 0.00 | 66 | 1018.1 |
| 20260503043127 | 52 | 326 | 0.0 | 3.0 | 0.00 | 0.00 | 0.00 | 66 | 1018.2 |
| 20260503042525 | 52 | 326 | 0.0 | 3.0 | 0.00 | 0.00 | 0.00 | 65 | 1018.2 |
| 20260503042025 | 52 | 349 | 0.0 | 3.0 | 0.00 | 0.00 | 0.00 | 65 | 1018.2 |
| 20260503041525 | 53 | 24 | 0.0 | 3.0 | 0.00 | 0.00 | 0.00 | 65 | 1018.2 |
| 20260503041024 | 53 | 355 | 0.0 | 4.0 | 0.00 | 0.00 | 0.00 | 65 | 1018.1 |
| 20260503040523 | 53 | 146 | 1.0 | 4.0 | 0.00 | 0.00 | 0.00 | 64 | 1018.0 |
| 20260503040026 | 53 | 9 | 0.0 | 2.0 | 0.00 | 0.00 | 0.00 | 65 | 1018.0 |
| 20260503035522 | 53 | 355 | 0.0 | 2.0 | 0.00 | 0.00 | 0.00 | 65 | 1018.0 |
| 20260503035021 | 53 | 63 | 0.0 | 2.0 | 0.00 | 0.00 | 0.00 | 66 | 1018.0 |
| 20260503034521 | 53 | 355 | 0.0 | 3.0 | 0.00 | 0.00 | 0.00 | 66 | 1018.0 |
| 20260503034020 | 53 | 355 | 0.0 | 5.0 | 0.00 | 0.00 | 0.00 | 67 | 1018.1 |
| 20260503033524 | 53 | 249 | 0.0 | 5.0 | 0.00 | 0.00 | 0.00 | 65 | 1018.2 |
| 20260503033021 | 53 | 272 | 0.0 | 0.0 | 0.00 | 0.00 | 0.00 | 65 | 1018.1 |
| 20260503032520 | 53 | 272 | 0.0 | 1.0 | 0.00 | 0.00 | 0.00 | 65 | 1018.1 |
| 20260503032023 | 53 | 272 | 0.0 | 3.0 | 0.00 | 0.00 | 0.00 | 65 | 1018.0 |
| 20260503031527 | 53 | 5 | 0.0 | 3.0 | 0.00 | 0.00 | 0.00 | 65 | 1018.0 |
| 20260503031019 | 53 | 360 | 0.0 | 3.0 | 0.00 | 0.00 | 0.00 | 64 | 1017.9 |
| 20260503030518 | 53 | 34 | 0.0 | 3.0 | 0.00 | 0.00 | 0.00 | 63 | 1017.9 |
| 20260503030019 | 53 | 16 | 0.0 | 1.0 | 0.00 | 0.00 | 0.00 | 65 | 1017.9 |
| 20260503025517 | 53 | 17 | 0.0 | 0.0 | 0.00 | 0.00 | 0.00 | 64 | 1017.8 |
| 20260503025016 | 52 | 17 | 0.0 | 1.0 | 0.00 | 0.00 | 0.00 | 64 | 1017.7 |
| 20260503024516 | 52 | 349 | 0.0 | 1.0 | 0.00 | 0.00 | 0.00 | 64 | 1017.6 |
| 20260503024017 | 52 | 360 | 0.0 | 1.0 | 0.00 | 0.00 | 0.00 | 66 | 1017.5 |
| 20260503023516 | 52 | 355 | 0.0 | 3.0 | 0.00 | 0.00 | 0.00 | 67 | 1017.6 |
| 20260503023015 | 52 | 355 | 0.0 | 3.0 | 0.00 | 0.00 | 0.00 | 67 | 1017.5 |
| 20260503022515 | 52 | 302 | 0.0 | 0.0 | 0.00 | 0.00 | 0.00 | 68 | 1017.4 |
| 20260503022018 | 52 | 320 | 0.0 | 2.0 | 0.00 | 0.00 | 0.00 | 66 | 1017.3 |
| 20260503021513 | 52 | 320 | 0.0 | 2.0 | 0.00 | 0.00 | 0.00 | 67 | 1017.3 |
| 20260503021014 | 51 | 10 | 0.0 | 1.0 | 0.00 | 0.00 | 0.00 | 66 | 1017.3 |
| 20260503020514 | 51 | 10 | 0.0 | 1.0 | 0.00 | 0.00 | 0.00 | 64 | 1017.2 |
| 20260503020012 | 51 | 10 | 0.0 | 1.0 | 0.00 | 0.00 | 0.00 | 65 | 1017.2 |
| 20260503015511 | 51 | 5 | 0.0 | 1.0 | 0.00 | 0.00 | 0.00 | 64 | 1017.1 |
| 20260503015010 | 52 | 9 | 0.0 | 0.0 | 0.00 | 0.00 | 0.00 | 64 | 1016.9 |
| 20260503014512 | 52 | 10 | 0.0 | 0.0 | 0.00 | 0.00 | 0.00 | 63 | 1016.8 |
| 20260503014008 | 52 | 10 | 0.0 | 0.0 | 0.00 | 0.00 | 0.00 | 63 | 1016.7 |
| 20260503013508 | 53 | 10 | 0.0 | 0.0 | 0.00 | 0.00 | 0.00 | 63 | 1016.6 |
| 20260503013012 | 53 | 10 | 0.0 | 0.0 | 0.00 | 0.00 | 0.00 | 63 | 1016.4 |
| 20260503012509 | 53 | 10 | 0.0 | 2.0 | 0.00 | 0.00 | 0.00 | 61 | 1016.4 |